"2003/01/01",114,114,114
"2003/01/02",114,115,114
"2003/01/03",115,116,115
"2003/01/04",120,121,117
"2003/01/05",121,121,121
"2003/01/06",122,122,121
"2003/01/07",123,123,122
"2003/01/08",123,124,123
"2003/01/09",124,124,124
"2003/01/10",125,125,124
"2003/01/11",125,125,124
"2003/01/12",121,124,118
"2003/01/13",115,118,113
"2003/01/14",113,113,112
"2003/01/15",112,113,112
"2003/01/16",112,113,112
"2003/01/17",113,113,113
"2003/01/18",113,113,113
"2003/01/19",113,114,113
"2003/01/20",115,115,114
"2003/01/21",116,116,115
"2003/01/22",116,117,116
"2003/01/23",118,120,117
"2003/01/24",120,120,120
"2003/01/25",120,121,120
"2003/01/26",121,121,120
"2003/01/27",119,123,118
"2003/01/28",121,123,120
"2003/01/29",120,120,119
"2003/01/30",119,120,119
"2003/01/31",120,121,120
"2003/02/01",121,122,121
"2003/02/02",122,122,122
"2003/02/03",123,123,122
"2003/02/04",123,123,123
"2003/02/05",124,124,123
"2003/02/06",124,124,124
"2003/02/07",124,125,124
"2003/02/08",125,125,125
"2003/02/09",127,128,125
"2003/02/10",122,126,119
"2003/02/11",116,119,115
"2003/02/12",115,115,115
"2003/02/13",115,115,115
"2003/02/14",115,115,115
"2003/02/15",115,116,115
"2003/02/16",117,119,116
"2003/02/17",119,120,119
"2003/02/18",120,121,120
"2003/02/19",122,122,121
"2003/02/20",123,123,122
"2003/02/21",123,123,123
"2003/02/22",123,124,123
"2003/02/23",124,125,124
"2003/02/24",126,128,125
"2003/02/25",122,127,118
"2003/02/26",116,118,114
"2003/02/27",114,114,113
"2003/02/28",113,114,113
"2003/03/01",114,125,113
"2003/03/02",126,129,124
"2003/03/03",126,131,123
"2003/03/04",129,131,124
"2003/03/05",122,124,118
"2003/03/06",117,118,116
"2003/03/07",122,129,116
"2003/03/08",127,128,127
"2003/03/09",129,129,128
"2003/03/10",128,129,127
"2003/03/11",126,127,123
"2003/03/12",119,123,116
"2003/03/13",115,116,115
"2003/03/14",114,115,114
"2003/03/15",115,115,115
"2003/03/16",115,116,115
"2003/03/17",118,118,116
"2003/03/18",119,119,118
"2003/03/19",119,119,119
"2003/03/20",120,120,119
"2003/03/21",120,120,120
"2003/03/22",121,121,120
"2003/03/23",121,121,121
"2003/03/24",121,121,121
"2003/03/25",124,127,121
"2003/03/26",126,127,124
"2003/03/27",122,124,119
"2003/03/28",116,119,114
"2003/03/29",113,114,113
"2003/03/30",112,113,112
"2003/03/31",112,113,112
"2003/04/01",113,113,113
"2003/04/02",114,116,113
"2003/04/03",117,117,116
"2003/04/04",117,117,117
"2003/04/05",120,124,117
"2003/04/06",126,127,124
"2003/04/07",128,129,127
"2003/04/08",128,134,125
"2003/04/09",129,132,125
"2003/04/10",122,125,119
"2003/04/11",117,119,115
"2003/04/12",115,117,114
"2003/04/13",118,118,117
"2003/04/14",118,118,118
"2003/04/15",118,119,118
"2003/04/16",119,119,119
"2003/04/17",119,120,119
"2003/04/18",120,120,119
"2003/04/19",120,120,119
"2003/04/20",120,120,119
"2003/04/21",120,120,120
"2003/04/22",120,120,119
"2003/04/23",119,119,118
"2003/04/24",118,118,118
"2003/04/25",119,119,118
"2003/04/26",120,120,119
"2003/04/27",120,120,120
"2003/04/28",120,120,119
"2003/04/29",119,119,119
"2003/04/30",121,124,118
"2003/05/01",123,124,123
"2003/05/02",123,123,123
"2003/05/03",122,123,118
"2003/05/04",116,118,114
"2003/05/05",113,114,113
"2003/05/06",112,113,112
"2003/05/07",112,112,111
"2003/05/08",111,113,110
"2003/05/09",114,115,113
"2003/05/10",115,115,115
"2003/05/11",115,115,115
"2003/05/12",116,116,115
"2003/05/13",116,116,116
"2003/05/14",116,116,115
"2003/05/15",119,120,116
"2003/05/16",121,122,120
"2003/05/17",121,122,118
"2003/05/18",115,118,114
"2003/05/19",114,115,113
"2003/05/20",118,131,114
"2003/05/21",131,133,131
"2003/05/22",133,134,131
"2003/05/23",126,131,121
"2003/05/24",117,121,115
"2003/05/25",114,115,113
"2003/05/26",113,113,113
"2003/05/27",113,113,113
"2003/05/28",113,113,113
"2003/05/29",113,113,113
"2003/05/30",113,113,113
"2003/05/31",117,123,113
"2003/06/01",123,124,122
"2003/06/02",125,126,124
"2003/06/03",125,127,122
"2003/06/04",118,122,116
"2003/06/05",115,116,114
"2003/06/06",114,115,114
"2003/06/07",114,114,114
"2003/06/08",114,114,114
"2003/06/09",114,115,114
"2003/06/10",114,114,114
"2003/06/11",114,114,114
"2003/06/12",115,115,114
"2003/06/13",115,116,115
"2003/06/14",116,117,115
"2003/06/15",117,118,117
"2003/06/16",118,118,118
"2003/06/17",119,119,118
"2003/06/18",120,120,119
"2003/06/19",120,121,117
"2003/06/20",114,117,112
"2003/06/21",112,112,111
"2003/06/22",111,111,111
"2003/06/23",111,111,111
"2003/06/24",111,111,111
"2003/06/25",114,117,112
"2003/06/26",116,118,116
"2003/06/27",118,119,118
"2003/06/28",120,121,119
"2003/06/29",122,132,121
"2003/06/30",128,131,126
"2003/07/01",126,128,122
"2003/07/02",118,122,115
"2003/07/03",114,115,113
"2003/07/04",119,121,114
"2003/07/05",118,119,118
"2003/07/06",119,119,119
"2003/07/07",121,123,119
"2003/07/08",124,124,123
"2003/07/09",123,124,119
"2003/07/10",117,119,115
"2003/07/11",115,118,114
"2003/07/12",117,117,117
"2003/07/13",118,119,117
"2003/07/14",121,122,119
"2003/07/15",121,122,119
"2003/07/16",117,119,115
"2003/07/17",114,115,113
"2003/07/18",113,113,113
"2003/07/19",113,113,112
"2003/07/20",113,113,113
"2003/07/21",115,118,113
"2003/07/22",120,121,118
"2003/07/23",121,124,121
"2003/07/24",129,134,124
"2003/07/25",122,125,119
"2003/07/26",118,119,118
"2003/07/27",119,119,119
"2003/07/28",119,120,119
"2003/07/29",121,123,120
"2003/07/30",122,123,119
"2003/07/31",117,119,115
"2003/08/01",114,115,113
"2003/08/02",113,113,113
"2003/08/03",113,113,113
"2003/08/04",113,113,113
"2003/08/05",113,114,113
"2003/08/06",115,115,114
"2003/08/07",115,116,115
"2003/08/08",115,116,115
"2003/08/09",119,122,116
"2003/08/10",121,121,120
"2003/08/11",121,121,120
"2003/08/12",119,120,117
"2003/08/13",115,117,113
"2003/08/14",114,117,113
"2003/08/15",140,155,117
"2003/08/16",165,171,155
"2003/08/17",175,176,172
"2003/08/18",172,176,168
"2003/08/19",161,168,154
"2003/08/20",148,154,143
"2003/08/21",139,143,134
"2003/08/22",130,134,126
"2003/08/23",122,126,117
"2003/08/24",115,117,113
"2003/08/25",112,113,112
"2003/08/26",112,112,112
"2003/08/27",116,119,112
"2003/08/28",119,120,118
"2003/08/29",116,118,114
"2003/08/30",113,114,113
"2003/08/31",113,113,113
"2003/09/01",114,114,113
"2003/09/02",114,115,114
"2003/09/03",115,115,115
"2003/09/04",116,116,115
"2003/09/05",117,117,117
"2003/09/06",117,117,117
"2003/09/07",118,118,117
"2003/09/08",118,118,118
"2003/09/09",118,118,118
"2003/09/10",118,118,117
"2003/09/11",118,118,118
"2003/09/12",119,119,118
"2003/09/13",119,119,118
"2003/09/14",118,119,118
"2003/09/15",119,119,118
"2003/09/16",119,119,119
"2003/09/17",118,119,118
"2003/09/18",118,118,118
"2003/09/19",118,118,117
"2003/09/20",118,120,117
"2003/09/21",125,132,120
"2003/09/22",138,140,132
"2003/09/23",138,139,137
"2003/09/24",135,137,131
"2003/09/25",129,131,125
"2003/09/26",124,125,121
"2003/09/27",120,121,119
"2003/09/28",117,119,116
"2003/09/29",116,116,115
"2003/09/30",115,116,115
"2003/10/01",115,116,115
"2003/10/02",116,116,116
"2003/10/03",116,116,116
"2003/10/04",116,117,116
"2003/10/05",117,117,117
"2003/10/06",117,117,117
"2003/10/07",117,118,117
"2003/10/08",118,118,118
"2003/10/09",118,118,117
"2003/10/10",117,118,117
"2003/10/11",117,117,117
"2003/10/12",119,119,117
"2003/10/13",123,130,119
"2003/10/14",132,137,129
"2003/10/15",134,137,132
"2003/10/16",129,132,126
"2003/10/17",122,126,119
"2003/10/18",118,119,117
"2003/10/19",117,118,117
"2003/10/20",118,118,118
"2003/10/21",118,119,118
"2003/10/22",122,124,119
"2003/10/23",127,131,124
"2003/10/24",130,130,129
"2003/10/25",127,129,125
"2003/10/26",125,125,125
"2003/10/27",125,126,125
"2003/10/28",127,129,126
"2003/10/29",125,128,122
"2003/10/30",119,122,116
"2003/10/31",115,116,114
"2003/11/01",114,115,114
"2003/11/02",115,115,115
"2003/11/03",116,116,115
"2003/11/04",117,118,116
"2003/11/05",118,119,117
"2003/11/06",122,123,119
"2003/11/07",124,124,123
"2003/11/08",121,124,119
"2003/11/09",117,119,115
"2003/11/10",115,115,115
"2003/11/11",116,118,115
"2003/11/12",119,120,118
"2003/11/13",121,122,120
"2003/11/14",119,122,116
"2003/11/15",115,116,115
"2003/11/16",115,115,115
"2003/11/17",116,116,115
"2003/11/18",116,116,116
"2003/11/19",117,117,116
"2003/11/20",118,120,117
"2003/11/21",121,122,120
"2003/11/22",122,122,122
"2003/11/23",118,122,116
"2003/11/24",115,116,115
"2003/11/25",117,123,115
"2003/11/26",127,131,123
"2003/11/27",129,131,127
"2003/11/28",124,127,121
"2003/11/29",120,123,118
"2003/11/30",136,141,124
"2003/12/01",142,144,140
"2003/12/02",147,149,145
"2003/12/03",150,150,148
"2003/12/04",146,148,145
"2003/12/05",143,145,142
"2003/12/06",140,142,139
"2003/12/07",138,139,137
"2003/12/08",135,137,134
"2003/12/09",132,134,130
"2003/12/10",128,130,126
"2003/12/11",125,126,124
"2003/12/12",123,124,123
"2003/12/13",122,123,121
"2003/12/14",121,122,121
"2003/12/15",122,123,122
"2003/12/16",123,124,123
"2003/12/17",124,125,124
"2003/12/18",123,125,120
"2003/12/19",118,120,116
"2003/12/20",116,116,114
"2003/12/21",115,115,114
"2003/12/22",116,116,115
"2003/12/23",117,117,116
"2003/12/24",117,118,117
"2003/12/25",118,119,118
"2003/12/26",119,120,119
"2003/12/27",120,121,120
"2003/12/28",121,122,120
"2003/12/29",122,122,121
"2003/12/30",121,121,120
"2003/12/31",119,120,118
